timestamp,wind_dir_avg,wind_spd_max_dir,wind_spd_avg,wind_spd_gust,battery_voltage,lat,long
2018-06-18 00:00:00+00:00,87.0,91.0,4.48,6.0,,47.59359,-54.27349
2018-06-18 00:10:00+00:00,93.0,92.0,3.65,4.58,,47.59359,-54.27349
2018-06-18 00:20:00+00:00,88.0,82.0,3.2,4.23,,47.59359,-54.27349
2018-06-18 00:30:00+00:00,57.0,58.0,2.01,2.27,,47.59359,-54.27349
2018-06-18 00:40:00+00:00,56.0,55.0,1.7,1.85,,47.59359,-54.27349
2018-06-18 00:50:00+00:00,81.0,85.0,1.68,1.91,,47.59359,-54.27349
2018-06-18 01:00:00+00:00,92.0,92.0,2.15,2.84,,47.59359,-54.27349
2018-06-18 01:10:00+00:00,91.0,88.0,2.86,3.64,,47.59359,-54.27349
2018-06-18 01:20:00+00:00,88.0,87.0,2.48,3.34,,47.59359,-54.27349
2018-06-18 01:30:00+00:00,86.0,86.0,2.24,2.62,,47.59359,-54.27349
2018-06-18 01:40:00+00:00,85.0,87.0,1.88,2.44,,47.59359,-54.27349
2018-06-18 01:50:00+00:00,91.0,98.0,2.11,2.34,,47.59359,-54.27349
2018-06-18 02:00:00+00:00,102.0,96.0,1.91,2.29,,47.59359,-54.27349
2018-06-18 02:10:00+00:00,113.0,108.0,1.01,1.16,,47.59359,-54.27349
2018-06-18 02:20:00+00:00,100.0,114.0,1.22,1.83,,47.59359,-54.27349
2018-06-18 02:30:00+00:00,105.0,104.0,1.54,1.87,,47.59359,-54.27349
2018-06-18 02:40:00+00:00,109.0,111.0,1.65,2.05,,47.59359,-54.27349
2018-06-18 02:50:00+00:00,122.0,131.0,1.23,1.58,,47.59359,-54.27349
2018-06-18 03:00:00+00:00,143.0,139.0,1.25,1.55,,47.59359,-54.27349
2018-06-18 03:10:00+00:00,133.0,140.0,0.5,0.75,,47.59359,-54.27349
2018-06-18 03:20:00+00:00,146.0,145.0,0.73,0.87,,47.59359,-54.27349
2018-06-18 03:30:00+00:00,148.0,149.0,1.09,1.39,,47.59359,-54.27349
2018-06-18 03:40:00+00:00,222.0,220.0,0.99,1.13,,47.59359,-54.27349
2018-06-18 03:50:00+00:00,234.0,235.0,1.69,2.05,,47.59359,-54.27349
2018-06-18 04:00:00+00:00,247.0,244.0,1.95,2.16,,47.59359,-54.27349
2018-06-18 04:10:00+00:00,231.0,227.0,1.29,1.58,,47.59359,-54.27349
2018-06-18 04:20:00+00:00,238.0,240.0,1.62,1.8,,47.59359,-54.27349
2018-06-18 04:30:00+00:00,233.0,230.0,1.53,1.74,,47.59359,-54.27349
2018-06-18 04:40:00+00:00,255.0,253.0,1.63,1.86,,47.59359,-54.27349
2018-06-18 04:50:00+00:00,263.0,269.0,1.35,1.55,,47.59359,-54.27349
2018-06-18 05:00:00+00:00,260.0,255.0,2.35,2.47,,47.59359,-54.27349
2018-06-18 05:10:00+00:00,269.0,271.0,1.26,1.67,,47.59359,-54.27349
2018-06-18 05:20:00+00:00,295.0,294.0,1.65,1.91,,47.59359,-54.27349
2018-06-18 05:30:00+00:00,320.0,321.0,0.55,0.63,,47.59359,-54.27349
2018-06-18 05:40:00+00:00,21.0,8.0,0.21,0.41,,47.59359,-54.27349
2018-06-18 05:50:00+00:00,74.0,82.0,0.22,0.28,,47.59359,-54.27349
2018-06-18 06:00:00+00:00,8.0,352.0,0.88,1.26,,47.59359,-54.27349
2018-06-18 06:10:00+00:00,18.0,16.0,0.87,1.01,,47.59359,-54.27349
2018-06-18 06:20:00+00:00,58.0,52.0,0.65,0.78,,47.59359,-54.27349
2018-06-18 06:30:00+00:00,133.0,138.0,0.89,1.08,,47.59359,-54.27349
2018-06-18 06:40:00+00:00,164.0,166.0,0.82,0.9,,47.59359,-54.27349
2018-06-18 06:50:00+00:00,136.0,136.0,1.3,1.4,,47.59359,-54.27349
2018-06-18 07:00:00+00:00,155.0,158.0,0.97,1.18,,47.59359,-54.27349
2018-06-18 07:10:00+00:00,154.0,159.0,1.42,1.6,,47.59359,-54.27349
2018-06-18 07:20:00+00:00,162.0,160.0,1.35,1.49,,47.59359,-54.27349
2018-06-18 07:30:00+00:00,154.0,161.0,1.33,1.55,,47.59359,-54.27349
2018-06-18 07:40:00+00:00,168.0,169.0,1.02,1.19,,47.59359,-54.27349
2018-06-18 07:50:00+00:00,150.0,143.0,0.77,0.87,,47.59359,-54.27349
2018-06-18 08:00:00+00:00,159.0,161.0,0.89,1.02,,47.59359,-54.27349
2018-06-18 08:10:00+00:00,164.0,170.0,1.16,1.42,,47.59359,-54.27349
2018-06-18 08:20:00+00:00,238.0,241.0,0.69,0.78,,47.59359,-54.27349
2018-06-18 08:30:00+00:00,207.0,198.0,0.76,0.88,,47.59359,-54.27349
2018-06-18 08:40:00+00:00,214.0,209.0,1.3,1.44,,47.59359,-54.27349
2018-06-18 08:50:00+00:00,173.0,162.0,1.38,1.62,,47.59359,-54.27349
2018-06-18 09:00:00+00:00,176.0,183.0,1.6,1.82,,47.59359,-54.27349
2018-06-18 09:10:00+00:00,198.0,203.0,0.92,1.12,,47.59359,-54.27349
2018-06-18 09:20:00+00:00,213.0,219.0,1.42,1.63,,47.59359,-54.27349
2018-06-18 09:30:00+00:00,204.0,199.0,1.39,1.69,,47.59359,-54.27349
2018-06-18 09:40:00+00:00,207.0,202.0,1.58,1.8,,47.59359,-54.27349
2018-06-18 09:50:00+00:00,185.0,183.0,1.73,1.91,,47.59359,-54.27349
2018-06-18 10:00:00+00:00,173.0,173.0,2.74,3.09,,47.59359,-54.27349
2018-06-18 10:10:00+00:00,185.0,195.0,2.87,3.11,,47.59359,-54.27349
2018-06-18 10:20:00+00:00,214.0,212.0,1.93,2.17,,47.59359,-54.27349
2018-06-18 10:30:00+00:00,228.0,230.0,2.52,2.82,,47.59359,-54.27349
2018-06-18 10:40:00+00:00,228.0,232.0,3.23,3.71,,47.59359,-54.27349
2018-06-18 10:50:00+00:00,224.0,225.0,4.12,4.34,,47.59359,-54.27349
2018-06-18 11:00:00+00:00,236.0,242.0,3.48,3.8,,47.59359,-54.27349
2018-06-18 11:10:00+00:00,234.0,232.0,3.95,4.43,,47.59359,-54.27349
2018-06-18 11:20:00+00:00,235.0,235.0,4.28,4.73,,47.59359,-54.27349
2018-06-18 11:30:00+00:00,236.0,233.0,3.97,4.72,,47.59359,-54.27349
2018-06-18 11:40:00+00:00,234.0,241.0,4.84,5.68,,47.59359,-54.27349
2018-06-18 11:50:00+00:00,230.0,229.0,5.83,6.47,,47.59359,-54.27349
2018-06-18 12:00:00+00:00,225.0,230.0,6.23,6.83,,47.59359,-54.27349
2018-06-18 12:10:00+00:00,227.0,228.0,6.19,6.82,,47.59359,-54.27349
2018-06-18 12:20:00+00:00,223.0,223.0,6.04,6.74,,47.59359,-54.27349
2018-06-18 12:30:00+00:00,225.0,227.0,6.15,6.78,,47.59359,-54.27349
2018-06-18 12:40:00+00:00,227.0,226.0,6.2,7.2,,47.59359,-54.27349
2018-06-18 12:50:00+00:00,230.0,232.0,6.51,7.23,,47.59359,-54.27349
2018-06-18 13:00:00+00:00,234.0,232.0,6.81,7.85,,47.59359,-54.27349
2018-06-18 13:10:00+00:00,233.0,232.0,6.97,7.48,,47.59359,-54.27349
2018-06-18 13:20:00+00:00,231.0,232.0,6.69,7.46,,47.59359,-54.27349
2018-06-18 13:30:00+00:00,233.0,236.0,7.08,7.98,,47.59359,-54.27349
2018-06-18 13:40:00+00:00,232.0,233.0,7.43,8.28,,47.59359,-54.27349
2018-06-18 13:50:00+00:00,232.0,231.0,7.76,8.55,,47.59359,-54.27349
2018-06-18 14:00:00+00:00,230.0,232.0,8.49,9.51,,47.59359,-54.27349
2018-06-18 14:10:00+00:00,233.0,234.0,7.92,9.12,,47.59359,-54.27349
2018-06-18 14:20:00+00:00,230.0,230.0,7.64,8.8,,47.59359,-54.27349
2018-06-18 14:30:00+00:00,232.0,232.0,7.83,9.4,,47.59359,-54.27349
2018-06-18 14:40:00+00:00,232.0,233.0,6.96,8.05,,47.59359,-54.27349
2018-06-18 14:50:00+00:00,234.0,235.0,6.71,7.5,,47.59359,-54.27349
2018-06-18 15:00:00+00:00,230.0,234.0,6.9,7.54,,47.59359,-54.27349
2018-06-18 15:10:00+00:00,225.0,228.0,7.58,8.22,,47.59359,-54.27349
2018-06-18 15:20:00+00:00,223.0,228.0,7.85,8.9,,47.59359,-54.27349
2018-06-18 15:30:00+00:00,228.0,225.0,8.72,9.79,,47.59359,-54.27349
2018-06-18 15:40:00+00:00,228.0,226.0,9.08,10.86,,47.59359,-54.27349
2018-06-18 15:50:00+00:00,225.0,225.0,9.83,10.88,,47.59359,-54.27349
2018-06-18 16:00:00+00:00,219.0,222.0,9.24,10.31,,47.59359,-54.27349
2018-06-18 16:10:00+00:00,225.0,228.0,9.82,11.3,,47.59359,-54.27349
2018-06-18 16:20:00+00:00,220.0,218.0,10.51,11.1,,47.59359,-54.27349
2018-06-18 16:30:00+00:00,224.0,227.0,9.12,10.23,,47.59359,-54.27349
2018-06-18 16:40:00+00:00,219.0,220.0,9.21,9.95,,47.59359,-54.27349
2018-06-18 16:50:00+00:00,217.0,219.0,9.05,9.79,,47.59359,-54.27349
2018-06-18 17:00:00+00:00,218.0,220.0,9.11,9.93,,47.59359,-54.27349
2018-06-18 17:10:00+00:00,219.0,219.0,9.46,10.39,,47.59359,-54.27349
2018-06-18 17:20:00+00:00,220.0,220.0,9.64,10.28,,47.59359,-54.27349
2018-06-18 17:30:00+00:00,222.0,222.0,9.06,10.02,,47.59359,-54.27349
2018-06-18 17:40:00+00:00,219.0,221.0,8.81,10.31,,47.59359,-54.27349
2018-06-18 17:50:00+00:00,223.0,223.0,8.55,9.46,,47.59359,-54.27349
2018-06-18 18:00:00+00:00,226.0,226.0,7.32,8.44,,47.59359,-54.27349
2018-06-18 18:10:00+00:00,226.0,227.0,7.97,9.13,,47.59359,-54.27349
2018-06-18 18:20:00+00:00,220.0,218.0,8.67,9.63,,47.59359,-54.27349
2018-06-18 18:30:00+00:00,224.0,226.0,8.42,9.22,,47.59359,-54.27349
2018-06-18 18:40:00+00:00,225.0,220.0,9.85,11.01,,47.59359,-54.27349
2018-06-18 18:50:00+00:00,226.0,225.0,10.27,11.24,,47.59359,-54.27349
2018-06-18 19:00:00+00:00,227.0,231.0,9.99,11.68,,47.59359,-54.27349
2018-06-18 19:10:00+00:00,230.0,230.0,10.06,11.25,,47.59359,-54.27349
2018-06-18 19:20:00+00:00,228.0,227.0,9.98,11.41,,47.59359,-54.27349
2018-06-18 19:30:00+00:00,230.0,230.0,8.05,9.37,,47.59359,-54.27349
2018-06-18 19:40:00+00:00,223.0,227.0,7.89,9.05,,47.59359,-54.27349
2018-06-18 19:50:00+00:00,226.0,221.0,7.84,8.71,,47.59359,-54.27349
2018-06-18 20:00:00+00:00,227.0,229.0,7.84,9.44,,47.59359,-54.27349
2018-06-18 20:10:00+00:00,224.0,223.0,9.38,10.24,,47.59359,-54.27349
2018-06-18 20:20:00+00:00,229.0,232.0,9.21,10.45,,47.59359,-54.27349
2018-06-18 20:30:00+00:00,227.0,232.0,9.11,10.27,,47.59359,-54.27349
2018-06-18 20:40:00+00:00,224.0,225.0,9.72,11.43,,47.59359,-54.27349
2018-06-18 20:50:00+00:00,222.0,223.0,10.5,11.77,,47.59359,-54.27349
2018-06-18 21:00:00+00:00,224.0,221.0,9.43,10.77,,47.59359,-54.27349
2018-06-18 21:10:00+00:00,225.0,227.0,10.34,11.74,,47.59359,-54.27349
2018-06-18 21:20:00+00:00,228.0,231.0,10.17,11.47,,47.59359,-54.27349
2018-06-18 21:30:00+00:00,227.0,228.0,10.19,11.2,,47.59359,-54.27349
2018-06-18 21:40:00+00:00,228.0,231.0,10.01,11.26,,47.59359,-54.27349
2018-06-18 21:50:00+00:00,228.0,230.0,10.84,11.7,,47.59359,-54.27349
2018-06-18 22:00:00+00:00,228.0,229.0,10.89,12.55,,47.59359,-54.27349
2018-06-18 22:10:00+00:00,227.0,231.0,11.29,12.99,,47.59359,-54.27349
2018-06-18 22:20:00+00:00,232.0,235.0,10.62,12.11,,47.59359,-54.27349
2018-06-18 22:30:00+00:00,226.0,229.0,10.4,11.96,,47.59359,-54.27349
2018-06-18 22:40:00+00:00,229.0,231.0,10.14,11.43,,47.59359,-54.27349
2018-06-18 22:50:00+00:00,225.0,225.0,11.67,12.95,,47.59359,-54.27349
2018-06-18 23:00:00+00:00,220.0,222.0,10.82,12.17,,47.59359,-54.27349
2018-06-18 23:10:00+00:00,221.0,220.0,10.6,12.16,,47.59359,-54.27349
2018-06-18 23:20:00+00:00,228.0,227.0,11.13,13.17,,47.59359,-54.27349
2018-06-18 23:30:00+00:00,223.0,229.0,11.18,12.5,,47.59359,-54.27349
2018-06-18 23:40:00+00:00,226.0,230.0,11.03,12.85,,47.59359,-54.27349
2018-06-18 23:50:00+00:00,226.0,230.0,9.81,11.98,,47.59359,-54.27349
